Fargo, ND

9:12 AM CDT on May 23, 2017 (GMT -0500)
Hector International

Weather History for KFAR - December, 2014

Change the Weather History Date:

Saturday, December 20, 2014

  Actual Average Record
Temperature  
Mean Temperature 32 °F 12 °F  
Max Temperature 33 °F 21 °F 46 °F (1890)
Min Temperature 30 °F 4 °F -28 °F (1916)
Degree Days  
Heating Degree Days 33 53  
Month to date heating degree days 848 985  
Since 1 July heating degree days 2805 2947  
Cooling Degree Days 0 0  
Month to date cooling degree days 0 0  
Year to date cooling degree days 544 551  
Moisture  
Dew Point 28 °F    
Average Humidity 87    
Maximum Humidity 92    
Minimum Humidity 82    
Precipitation  
Precipitation 0.00 in 0.02 in 0.57 in (1967)
Month to date precipitation 0.08 0.52  
Year to date precipitation 20.03 22.30  
Snow  
Snow 0.00 in 0.40 in 5.50 in (2010)
Month to date snowfall 0.6 6.9  
Since 1 July snowfall 4.2 15.5  
Snow Depth T in    
Sea Level Pressure  
Sea Level Pressure 30.01 in    
Wind  
Wind Speed 14 mph (South)    
Max Wind Speed 24 mph    
Max Gust Speed 31 mph    
Visibility 6 miles    
Events      
T = Trace of Precipitation, MM = Missing Value Source: NWS Daily Summary

Daily Weather History Graph

Daily Weather History Graph

Search for Another Location

Airport or City:

Trip Planner

Search our weather history database for the weather conditions in past years. The results will help you decide how hot, cold, wet, or windy it might be!

Date:

Astronomy

Dec. 20, 2014 Rise Set
Actual Time 8:09 AM CST 4:40 PM CST
Civil Twilight 7:33 AM CST 5:16 PM CST
Nautical Twilight 6:55 AM CST 5:54 PM CST
Astronomical Twilight 6:17 AM CST 6:31 PM CST
Moon 6:21 AM CST (12/20) 3:57 PM CST (12/20)
Length of Visible Light 9h 42m
Length of Day
8h 31m
Waning Crescent, 2% of the Moon is Illuminated
Dec 20
Waning Crescent
Dec 21
New
Dec 28
First Quarter
Jan 4
Full
Jan 13
Last Quarter

Hourly Weather History & Observations

Time (CST) Temp. Windchill Dew Point Humidity Pressure Visibility Wind Dir Wind Speed Gust Speed Precip Events Conditions
12:53 AM 30.9 °F 24.3 °F 28.0 °F 89% 30.05 in 7.0 mi SSW 6.9 mph - N/A   Overcast
1:53 AM 30.9 °F 21.7 °F 28.0 °F 89% 30.06 in 8.0 mi SSW 11.5 mph - N/A   Overcast
2:53 AM 30.9 °F 22.8 °F 28.0 °F 89% 30.07 in 7.0 mi South 9.2 mph - N/A   Overcast
3:53 AM 30.9 °F 22.8 °F 28.0 °F 89% 30.07 in 7.0 mi South 9.2 mph - N/A   Overcast
4:53 AM 30.9 °F 23.5 °F 28.0 °F 89% 30.06 in 6.0 mi South 8.1 mph - N/A   Overcast
5:53 AM 30.0 °F 21.1 °F 27.0 °F 88% 30.06 in 6.0 mi South 10.4 mph - N/A   Overcast
6:53 AM 30.0 °F 20.5 °F 27.0 °F 88% 30.06 in 7.0 mi South 11.5 mph - N/A   Overcast
7:53 AM 30.0 °F 21.1 °F 26.1 °F 85% 30.06 in 8.0 mi South 10.4 mph - N/A   Overcast
8:53 AM 30.0 °F 20.5 °F 27.0 °F 88% 30.06 in 6.0 mi South 11.5 mph - N/A   Overcast
9:53 AM 30.0 °F 20.5 °F 27.0 °F 88% 30.06 in 5.0 mi South 11.5 mph - N/A   Overcast
10:53 AM 30.9 °F 19.4 °F 27.0 °F 85% 30.06 in 5.0 mi South 17.3 mph - N/A   Overcast
11:53 AM 32.0 °F 21.2 °F 28.0 °F 85% 30.04 in 5.0 mi South 16.1 mph - N/A   Overcast
12:53 PM 32.0 °F 22.5 °F 28.0 °F 85% 30.03 in 5.0 mi South 12.7 mph - N/A   Overcast
1:53 PM 30.2 °F 18.9 °F 28.4 °F 93% 29.97 in 5.0 mi South 16.1 mph - N/A   Overcast
2:53 PM 30.9 °F 19.1 °F 27.0 °F 85% 30.01 in 4.0 mi South 18.4 mph - N/A   Overcast
3:53 PM 30.9 °F 20.7 °F 27.0 °F 85% 30.00 in 4.0 mi South 13.8 mph - N/A   Overcast
4:53 PM 30.9 °F 19.8 °F 28.0 °F 89% 29.99 in 6.0 mi SSE 16.1 mph 21.9 mph N/A   Overcast
5:53 PM 32.0 °F 21.6 °F 28.0 °F 85% 29.99 in 5.0 mi SSE 15.0 mph 21.9 mph N/A   Overcast
6:53 PM 32.0 °F 20.1 °F 28.0 °F 85% 29.96 in 5.0 mi SSE 19.6 mph 23.0 mph N/A   Overcast
7:53 PM 33.1 °F 23.4 °F 28.9 °F 85% 29.96 in 5.0 mi SSE 13.8 mph 27.6 mph N/A   Overcast
8:53 PM 33.1 °F 21.2 °F 28.9 °F 85% 29.94 in 5.0 mi SSE 20.7 mph 28.8 mph N/A   Overcast
9:53 PM 33.1 °F 21.2 °F 28.9 °F 85% 29.94 in 5.0 mi South 20.7 mph 28.8 mph N/A   Overcast
10:53 PM 33.1 °F 22.2 °F 28.9 °F 85% 29.93 in 6.0 mi South 17.3 mph 27.6 mph N/A   Overcast
11:53 PM 32.0 °F 21.6 °F 28.9 °F 88% 29.92 in 5.0 mi South 15.0 mph - N/A   Overcast